[[{"header":{"parameterUnit":"m.s-1","parameterCategory":1,"la1":30.2991,"la2":30.254,"lo1":-89.0895,"lo2":-89.0444,"dy":0.0017,"dx":0.0017,"nx":28,"ny":28,"refTime":"2024-06-29T21:00:00:Z","depth":0,"parameterNumber":2,"parameterNumberName":"U-component_of_WINDS"},"data":[0,0,0,0,0,0,0,0,0,0,0,0,0,0,0,0,0,0,0,0,0,0,0,0,0,0,0,0,0,0,0,0,0,0,0,0,0,0,0,0,0,0,0,0,0,0,0,0,0,0,0,0,0,0,0,0,0,0,0.3882,0.3884,0,0.4096,0.4099,0.4101,0.4183,0.4182,0.4181,0.4181,0.4404,0.4411,0.4417,0,0,0,0,0,0,0,0,0,0,0,0,0,0.3543,0.3549,0.3881,0.3884,0.3887,0.4096,0.4099,0.4102,0.4183,0.4182,0.4181,0.418,0.4402,0.441,0.4418,0,0,0,0,0,0,0,0,0,0,0,0,0,0.3717,0.3551,0.3881,0.3952,0.3961,0.4095,0.4099,0.4103,0.4183,0.4182,0.4181,0.418,0.44,0.4409,0.4419,0.4499,0,0,0.4449,0.4453,0,0,0,0,0,0,0,0,0.3707,0.373,0.3939,0.3947,0.3957,0.4112,0.4062,0.4236,0.4183,0.4099,0.4181,0.418,0.4308,0.4325,0.4368,0.451,0.4519,0.445,0.4456,0.446,0.4463,0,0,0,0,0,0,0,0.3695,0.3721,0.3967,0.3942,0.3953,0.3974,0.3998,0.4095,0.4206,0.4106,0.4112,0.4137,0.4313,0.4358,0.4374,0.4523,0.445,0.4458,0.4464,0.4468,0.4742,0.4743,0,0,0,0,0,0,0.3671,0.371,0.396,0.3973,0.3827,0.3981,0.4008,0.4063,0.4205,0.4226,0.4137,0.4139,0.4342,0.4362,0.4382,0.4486,0.446,0.4469,0.4475,0.474,0.4742,0.4744,0,0,0,0,0,0,0.3663,0.3692,0.3951,0.3843,0.3878,0.3988,0.405,0.4068,0.4113,0.4229,0.425,0.4163,0.4342,0.4368,0.4469,0.4495,0.4474,0.4483,0.4739,0.4741,0.4743,0.4694,0,0,0,0,0,0,0.3653,0.3689,0.372,0.3843,0.3883,0.4034,0.4051,0.4073,0.413,0.4135,0.4259,0.4278,0.4343,0.4454,0.4479,0.4508,0.449,0.4737,0.474,0.4742,0.4694,0.4694,0.4694,0,0,0,0,0,0.3641,0.3699,0.3721,0.3751,0.3925,0.4035,0.4058,0.4131,0.4131,0.4164,0.4238,0.4274,0.4487,0.4464,0.4493,0.4525,0.4736,0.4739,0.4742,0.4694,0.4694,0.4694,0,0,0,0,0,0,0.3577,0.3716,0.3743,0.3842,0.3926,0.4049,0.4092,0.4129,0.4215,0.4216,0.4304,0.4331,0.4425,0.4485,0.4456,0.461,0.4614,0.4623,0.4568,0.4569,0.4569,0.4553,0.4498,0,0,0,0,0,0.3574,0.3651,0.3769,0.3846,0.3886,0.3981,0.4033,0.4081,0.4172,0.4208,0.429,0.4377,0.4464,0.452,0.4606,0.4702,0.4731,0.4739,0.4739,0.4738,0.4745,0.4801,0.4806,0.4754,0.4754,0.4754,0,0,0.357,0.3655,0.3699,0.3835,0.3906,0.3985,0.4011,0.4094,0.4153,0.4221,0.4322,0.4384,0.4488,0.4587,0.4635,0.464,0.4766,0.4742,0.4741,0.4749,0.4805,0.4809,0.4814,0.4756,0.4755,0.4755,0,0,0.3602,0.3674,0.3746,0.3816,0.3922,0.3985,0.4001,0.4119,0.4163,0.4264,0.4317,0.4389,0.4537,0.4609,0.4664,0.4722,0.4759,0.4748,0.475,0.4803,0.4807,0.4811,0.4832,0.4839,0.4754,0.4754,0.4754,0,0.3583,0.3704,0.3778,0.3858,0.3916,0.3979,0.4053,0.4117,0.4247,0.4286,0.4289,0.4475,0.455,0.4666,0.468,0.4723,0.4746,0.4735,0.48,0.4805,0.481,0.4831,0.4839,0.4752,0.4753,0.4753,0.4753,0,0.3676,0.3758,0.3803,0.3925,0.3989,0.4065,0.4151,0.4206,0.4249,0.4311,0.4414,0.4505,0.4611,0.4642,0.4685,0.4765,0.4765,0.4783,0.4789,0.4812,0.4833,0.4842,0.475,0.475,0.4751,0.4751,0,0,0.3675,0.3836,0.3851,0.3908,0.4029,0.4095,0.4173,0.4275,0.4321,0.4408,0.4477,0.46,0.4617,0.468,0.4731,0.4778,0.4818,0.4791,0.4794,0.4793,0.4912,0.4898,0.4906,0.4842,0.4844,0.4846,0.4903,0,0.3724,0.3867,0.3936,0.4049,0.4126,0.4187,0.4256,0.4338,0.4398,0.4473,0.454,0.4626,0.4642,0.4681,0.4729,0.4803,0.4843,0.4799,0.4908,0.4911,0.4881,0.4917,0.4903,0.4953,0.4912,0.4914,0.4915,0,0.38,0.3885,0.4006,0.4118,0.4153,0.4213,0.4312,0.4383,0.4477,0.4518,0.4587,0.4637,0.4723,0.4721,0.4841,0.481,0.4858,0.4901,0.4905,0.4918,0.4915,0.4933,0.4971,0.4978,0.4929,0.4927,0.4927,0,0.3788,0.3933,0.4024,0.407,0.4202,0.4243,0.4301,0.4394,0.4451,0.4537,0.4575,0.4671,0.4723,0.4797,0.4871,0.4863,0.4984,0.4988,0.5021,0.5019,0.5044,0.5042,0.5091,0.5074,0.5074,0.5073,0.5073,0,0.3836,0.3907,0.402,0.4076,0.4158,0.4236,0.4315,0.4377,0.446,0.4529,0.4588,0.4652,0.4745,0.4821,0.488,0.497,0.4994,0.5029,0.5044,0.5025,0.502,0.5058,0.5057,0.5076,0.5075,0.5075,0.5074,0,0.3837,0.3915,0.4018,0.4134,0.4165,0.4221,0.4321,0.4378,0.444,0.4527,0.4552,0.4651,0.4743,0.4824,0.4947,0.4986,0.5079,0.5097,0.5047,0.5055,0.5083,0.5079,0.5159,0.5174,0.5145,0.5145,0.5145,0,0.3862,0.3919,0.4041,0.4091,0.4147,0.4227,0.4285,0.4364,0.4422,0.4534,0.4577,0.4673,0.4755,0.4899,0.4983,0.5077,0.5098,0.5119,0.5112,0.5091,0.5099,0.5095,0.5101,0.5119,0.5119,0.5119,0.5119,0,0.39,0.3935,0.4016,0.4111,0.4178,0.4256,0.4336,0.4374,0.4468,0.4531,0.4625,0.4688,0.4812,0.4907,0.501,0.507,0.5111,0.512,0.5133,0.5114,0.5083,0.51,0.5047,0.5119,0.5119,0.5119,0.5119,0.5119,0.3915,0.3967,0.4061,0.4149,0.4217,0.4291,0.435,0.4419,0.4499,0.4606,0.4648,0.4744,0.4837,0.4979,0.5039,0.5116,0.5123,0.514,0.5145,0.5149,0.5145,0.5069,0.5135,0.5135,0.5135,0.5135,0.5135,0,0.3955,0.4018,0.4098,0.4208,0.4277,0.4308,0.4398,0.4454,0.4538,0.462,0.4699,0.4807,0.49,0.4989,0.5086,0.5131,0.5152,0.5153,0.5152,0.5165,0.5134,0.5113,0.5135,0.5135,0.5135,0.5135,0.5135,0.5135,0.3985,0.4075,0.4122,0.4247,0.4311,0.4405,0.4453,0.4521,0.4588,0.4706,0.4782,0.484,0.4926,0.5029,0.5115,0.5139,0.5173,0.5169,0.5198,0.5168,0.5167,0.5166,0.5147,0.5176,0.5176,0.5224,0.5224,0.5224]},{"header":{"parameterUnit":"m.s-1","parameterCategory":1,"la1":30.2991,"la2":30.254,"lo1":-89.0895,"lo2":-89.0444,"dy":0.0017,"dx":0.0017,"nx":28,"ny":28,"refTime":"2024-06-29T21:00:00:Z","depth":0,"parameterNumber":3,"parameterNumberName":"V-component_of_WINDS"},"data":[0,0,0,0,0,0,0,0,0,0,0,0,0,0,0,0,0,0,0,0,0,0,0,0,0,0,0,0,0,0,0,0,0,0,0,0,0,0,0,0,0,0,0,0,0,0,0,0,0,0,0,0,0,0,0,0,0,0,4.4821,4.4821,0,4.479,4.479,4.4789,4.4758,4.4758,4.4757,4.4757,4.4723,4.4722,4.4722,0,0,0,0,0,0,0,0,0,0,0,0,0,4.4853,4.4852,4.4821,4.4821,4.482,4.479,4.479,4.4789,4.4758,4.4758,4.4757,4.4757,4.4723,4.4722,4.4722,0,0,0,0,0,0,0,0,0,0,0,0,0,4.4832,4.4852,4.4821,4.4801,4.4799,4.479,4.479,4.4789,4.4758,4.4758,4.4757,4.4756,4.4723,4.4722,4.4721,4.4729,0,0,4.4719,4.4719,0,0,0,0,0,0,0,0,4.4833,4.4831,4.4805,4.4803,4.48,4.4777,4.4788,4.4769,4.4758,4.4774,4.4757,4.4756,4.4741,4.4739,4.4734,4.4727,4.4726,4.4719,4.4718,4.4718,4.4718,0,0,0,0,0,0,0,4.4835,4.4832,4.4809,4.4804,4.4802,4.4794,4.479,4.4784,4.4761,4.4772,4.477,4.4767,4.474,4.4735,4.4733,4.4725,4.4719,4.4718,4.4718,4.4717,4.4724,4.4724,0,0,0,0,0,0,4.4839,4.4834,4.481,4.4808,4.4816,4.4794,4.4789,4.4785,4.4761,4.4757,4.4767,4.4766,4.4737,4.4734,4.4732,4.4739,4.4718,4.4717,4.4717,4.4723,4.4724,4.4724,0,0,0,0,0,0,4.484,4.4838,4.4811,4.482,4.4816,4.4794,4.4789,4.4785,4.478,4.4758,4.4753,4.4767,4.4736,4.4733,4.473,4.4738,4.4717,4.4716,4.4722,4.4723,4.4724,4.4754,0,0,0,0,0,0,4.4841,4.4838,4.4841,4.482,4.4816,4.481,4.479,4.4785,4.4779,4.4776,4.4756,4.4752,4.4735,4.4732,4.4729,4.4736,4.4716,4.4721,4.4723,4.4724,4.4752,4.4756,4.4759,0,0,0,0,0,4.4843,4.485,4.4841,4.4838,4.4819,4.4811,4.4808,4.479,4.478,4.4782,4.4768,4.4752,4.4738,4.4732,4.4729,4.4735,4.4721,4.4722,4.4724,4.4751,4.4755,4.4759,0,0,0,0,0,0,4.487,4.4847,4.4837,4.4838,4.4827,4.4805,4.4808,4.4795,4.4785,4.4783,4.476,4.4756,4.4756,4.4745,4.4739,4.4742,4.4727,4.4728,4.4748,4.4752,4.4756,4.4758,4.4715,0,0,0,0,0,4.4877,4.4873,4.4852,4.4855,4.485,4.483,4.4826,4.4813,4.48,4.4795,4.478,4.4768,4.4761,4.4756,4.4748,4.4751,4.4746,4.4754,4.4758,4.4761,4.4761,4.4763,4.4766,4.4729,4.4729,4.4729,0,0,4.489,4.4876,4.4875,4.486,4.485,4.4846,4.4826,4.4822,4.4819,4.4794,4.4791,4.478,4.4765,4.4765,4.4764,4.4756,4.4771,4.4762,4.4765,4.4764,4.4765,4.4768,4.4771,4.473,4.473,4.473,0,0,4.4911,4.49,4.4902,4.4893,4.4878,4.4865,4.4866,4.4847,4.4839,4.4836,4.4817,4.4813,4.48,4.4791,4.4784,4.4804,4.4789,4.4802,4.4819,4.482,4.4823,4.4826,4.4833,4.4836,4.4803,4.4803,4.4803,0,4.4928,4.4922,4.4904,4.4902,4.4896,4.4875,4.4876,4.4868,4.4851,4.4847,4.4839,4.4824,4.4812,4.481,4.4815,4.4811,4.4811,4.4803,4.4825,4.4827,4.4829,4.4835,4.4838,4.4805,4.4804,4.4804,4.4804,0,4.4944,4.494,4.4943,4.4929,4.4923,4.4923,4.4905,4.4902,4.489,4.4878,4.4875,4.4861,4.485,4.4848,4.4836,4.4845,4.4841,4.4829,4.4813,4.4834,4.484,4.4842,4.4807,4.4806,4.4806,4.4805,0,0,4.498,4.4957,4.4958,4.4952,4.4935,4.4932,4.4931,4.4921,4.4919,4.4909,4.4907,4.4898,4.4888,4.488,4.4867,4.4869,4.4886,4.4857,4.4856,4.4862,4.4895,4.4903,4.4907,4.4877,4.4877,4.4877,4.4896,0,4.4998,4.4995,4.498,4.4981,4.4978,4.4958,4.4958,4.4947,4.4937,4.4932,4.492,4.4914,4.49,4.4896,4.4897,4.4883,4.4892,4.4882,4.4874,4.4874,4.4878,4.491,4.4918,4.4936,4.4898,4.4899,4.4899,0,4.5017,4.501,4.5011,4.4996,4.4994,4.4993,4.4984,4.498,4.4968,4.496,4.4953,4.4939,4.4937,4.4924,4.4921,4.4914,4.4911,4.4904,4.4904,4.4902,4.4887,4.4908,4.4942,4.4944,4.4902,4.4902,4.4902,0,4.5043,4.5033,4.5033,4.5028,4.501,4.5011,4.5003,4.4991,4.4986,4.4978,4.4975,4.4967,4.4962,4.4956,4.494,4.4931,4.4939,4.4924,4.4932,4.4932,4.4933,4.4933,4.4966,4.4932,4.4932,4.4932,4.4932,0,4.5064,4.5066,4.5045,4.5044,4.5046,4.5029,4.5031,4.5021,4.5011,4.5009,4.4992,4.499,4.4969,4.4965,4.4953,4.4952,4.495,4.4944,4.494,4.4945,4.4946,4.4941,4.494,4.4933,4.4932,4.4932,4.4932,0,4.5092,4.5078,4.5077,4.5061,4.5057,4.5059,4.5045,4.5044,4.5033,4.5031,4.5029,4.5012,4.5006,4.499,4.498,4.4972,4.4975,4.4969,4.4979,4.4977,4.4986,4.4985,4.5017,4.502,4.4984,4.4985,4.4985,0,4.5106,4.5107,4.5092,4.5089,4.5083,4.5079,4.5075,4.5059,4.5055,4.5043,4.5044,4.5037,4.5031,4.5023,4.5009,4.5002,4.4995,4.5007,4.4994,4.4999,4.4995,4.4995,4.4995,4.501,4.501,4.501,4.5011,0,4.5132,4.5125,4.512,4.5114,4.511,4.5103,4.5096,4.5095,4.5076,4.5073,4.5068,4.5063,4.5054,4.5048,4.5039,4.5031,4.5018,4.5015,4.5017,4.5021,4.5027,4.5024,4.4986,4.5014,4.5014,4.5014,4.5013,4.5013,4.5153,4.5153,4.5143,4.5138,4.5132,4.5125,4.5124,4.5114,4.511,4.5101,4.5092,4.5088,4.5078,4.5064,4.5057,4.5054,4.5047,4.5049,4.5049,4.505,4.5052,4.5029,4.5052,4.5052,4.5052,4.5052,4.5052,0,4.5178,4.5171,4.5167,4.5158,4.5154,4.5144,4.5136,4.5133,4.513,4.5122,4.5117,4.5111,4.5106,4.5093,4.5086,4.5086,4.508,4.5084,4.5084,4.5082,4.5059,4.5058,4.5089,4.5089,4.5089,4.5089,4.5089,4.5089,4.519,4.5191,4.5183,4.518,4.5173,4.517,4.5166,4.5161,4.5154,4.5149,4.5145,4.5137,4.5126,4.5119,4.5114,4.511,4.5108,4.5115,4.5109,4.5087,4.5084,4.508,4.508,4.5115,4.5115,4.5133,4.5133,4.5133]}]]